Location: Clanezzo
(45.7500°N, 9.6000°E)
Time: 21:58:52
(UTC+00:00)

ESTCUBE 1 - Pass Details

Date: 06 July 2022
Orbit: 646 x 657 km, 97.9° (Epoch: 07 August)

Event Time Altitude Azimuth Distance (km) Brightness Sun altitude
Exits shadow 22:13:46 22° 223° (SW) 1,421 ? -19.7°
Maximum altitude 22:15:40 30° 264° (W) 1,164 ? -19.8°
Drops below altitude 10° 22:19:38 10° 326° (NNW) 2,061 ? -20.0°
Sets 22:22:05 0° 338° (NNW) 2,979 ? -20.1°
